When you browse on this site, cookies collect data to enhance your experience and personalize the content and advertising you see.
Visit our Privacy Policy to learn more. By continuing to use the site, you agree to this use of cookies and data.
  • In Hungary
  • List of Countries
  • For 7 days
  • Water Temperature
  • Weather Map
  • News
  • Weather Widgets
  • user-avatar
    Login

    Hourly Weather Luchegorsk

    Today, 18 November, Monday

    Time Temperature Precipitation Wind Pressure Humidity
    00:00 -9°C° 0 mm 2 mps 759 mmHg 65%
    01:00 -9°C° 0 mm 2 mps 757 mmHg 64%
    02:00 -8°C° 0 mm 2 mps 755 mmHg 63%
    03:00 -8°C° 0 mm 2 mps 754 mmHg 62%
    04:00 -8°C° 0.3 mm 2 mps 752 mmHg 65%
    05:00 -8°C° 0.3 mm 3 mps 751 mmHg 68%
    06:00 -8°C° 0.3 mm 3 mps 749 mmHg 71%
    07:00 -7°C° 1.2 mm 3 mps 747 mmHg 77%
    08:00 -6°C° 1.2 mm 3 mps 746 mmHg 84%
    09:00 -5°C° 0 mm 2 mps 745 mmHg 95%
    10:00 -5°C° 3.1 mm 3 mps 745 mmHg 95%
    11:00 -4°C° 3.1 mm 3 mps 745 mmHg 95%
    12:00 -2°C° 3.1 mm 3 mps 744 mmHg 95%
    13:00 -4°C° 2 mm 4 mps 744 mmHg 94%
    14:00 -7°C° 2 mm 5 mps 744 mmHg 93%
    15:00 -10°C° 0 mm 5 mps 745 mmHg 90%
    16:00 -11°C° 0.2 mm 5 mps 746 mmHg 88%
    17:00 -12°C° 0.2 mm 5 mps 747 mmHg 87%
    18:00 -13°C° 0.2 mm 5 mps 748 mmHg 85%
    19:00 -14°C° 0 mm 5 mps 749 mmHg 86%
    20:00 -15°C° 0 mm 4 mps 749 mmHg 87%
    21:00 -16°C° 0 mm 4 mps 750 mmHg 88%
    22:00 -17°C° 0 mm 4 mps 750 mmHg 89%
    23:00 -17°C° 0 mm 3 mps 751 mmHg 90%

    Tomorrow, 19 November, Tuesday

    Time Temperature Precipitation Wind Pressure Humidity
    00:00 -18°C° 0 mm 3 mps 751 mmHg 90%
    01:00 -19°C° 0 mm 3 mps 751 mmHg 92%
    02:00 -19°C° 0 mm 2 mps 750 mmHg 93%
    03:00 -20°C° 0 mm 2 mps 750 mmHg 94%
    04:00 -20°C° 0 mm 2 mps 750 mmHg 95%
    05:00 -20°C° 0 mm 2 mps 750 mmHg 95%
    06:00 -21°C° 0 mm 2 mps 750 mmHg 95%
    07:00 -20°C° 0 mm 2 mps 750 mmHg 94%
    08:00 -19°C° 0 mm 2 mps 750 mmHg 93%
    09:00 -18°C° 0 mm 2 mps 750 mmHg 91%
    10:00 -16°C° 0 mm 2 mps 750 mmHg 90%
    11:00 -15°C° 0 mm 2 mps 750 mmHg 88%
    12:00 -15°C° 0 mm 3 mps 750 mmHg 86%
    13:00 -14°C° 0.1 mm 3 mps 751 mmHg 86%
    14:00 -14°C° 0.1 mm 3 mps 751 mmHg 85%
    15:00 -14°C° 0.1 mm 3 mps 751 mmHg 84%
    16:00 -15°C° 0 mm 3 mps 751 mmHg 85%
    17:00 -17°C° 0 mm 3 mps 752 mmHg 86%
    18:00 -17°C° 0 mm 2 mps 752 mmHg 87%
    19:00 -18°C° 0 mm 2 mps 753 mmHg 89%
    20:00 -18°C° 0 mm 2 mps 753 mmHg 91%
    21:00 -19°C° 0 mm 2 mps 753 mmHg 92%
    22:00 -18°C° 0 mm 2 mps 754 mmHg 93%
    23:00 -18°C° 0 mm 2 mps 755 mmHg 93%

    Day after tomorrow, 20 November, Wednesday

    Time Temperature Precipitation Wind Pressure Humidity
    00:00 -16°C° 0 mm 1 mps 756 mmHg 94%
    01:00 -17°C° 0 mm 1 mps 756 mmHg 94%
    02:00 -19°C° 0 mm 2 mps 757 mmHg 94%
    03:00 -20°C° 0 mm 2 mps 758 mmHg 95%
    04:00 -20°C° 0 mm 2 mps 759 mmHg 95%
    05:00 -20°C° 0 mm 2 mps 760 mmHg 94%
    06:00 -20°C° 0 mm 2 mps 760 mmHg 94%
    07:00 -20°C° 0 mm 2 mps 761 mmHg 92%
    08:00 -19°C° 0 mm 2 mps 761 mmHg 90%
    09:00 -18°C° 0 mm 2 mps 762 mmHg 88%
    10:00 -18°C° 0 mm 3 mps 762 mmHg 86%
    11:00 -17°C° 0 mm 3 mps 762 mmHg 85%
    12:00 -17°C° 0 mm 4 mps 762 mmHg 83%
    13:00 -15°C° 0 mm 3 mps 762 mmHg 84%
    14:00 -15°C° 0 mm 3 mps 762 mmHg 84%
    15:00 -15°C° 0 mm 3 mps 763 mmHg 85%
    16:00 -16°C° 0 mm 3 mps 763 mmHg 88%
    17:00 -16°C° 0 mm 2 mps 763 mmHg 91%
    18:00 -17°C° 0 mm 2 mps 763 mmHg 94%
    19:00 -17°C° 0 mm 2 mps 764 mmHg 94%
    20:00 -15°C° 0 mm 1 mps 764 mmHg 95%
    21:00 -16°C° 0 mm 1 mps 764 mmHg 96%
    22:00 -16°C° 0 mm 1 mps 764 mmHg 96%
    23:00 -17°C° 0 mm 1 mps 764 mmHg 96%

    21 November, Thursday

    Time Temperature Precipitation Wind Pressure Humidity
    00:00 -17°C° 0 mm 1 mps 764 mmHg 97%
    01:00 -17°C° 0 mm 1 mps 764 mmHg 96%
    02:00 -18°C° 0 mm 1 mps 765 mmHg 96%
    03:00 -18°C° 0 mm 1 mps 765 mmHg 96%
    04:00 -19°C° 0 mm 1 mps 765 mmHg 95%
    05:00 -19°C° 0 mm 1 mps 765 mmHg 95%
    06:00 -19°C° 0 mm 1 mps 765 mmHg 95%
    07:00 -18°C° 0 mm 1 mps 765 mmHg 93%
    08:00 -17°C° 0 mm 1 mps 766 mmHg 92%
    09:00 -16°C° 0 mm 1 mps 766 mmHg 90%
    10:00 -17°C° 0 mm 2 mps 766 mmHg 88%
    11:00 -15°C° 0 mm 2 mps 766 mmHg 87%
    12:00 -13°C° 0 mm 2 mps 766 mmHg 85%
    13:00 -13°C° 0 mm 2 mps 766 mmHg 86%
    14:00 -13°C° 0 mm 2 mps 766 mmHg 87%
    15:00 -12°C° 0 mm 2 mps 766 mmHg 88%
    16:00 -12°C° 0 mm 1 mps 766 mmHg 90%
    17:00 -13°C° 0 mm 1 mps 766 mmHg 92%
    18:00 -15°C° 0 mm 1 mps 766 mmHg 94%
    19:00 -15°C° 0 mm 1 mps 767 mmHg 94%
    20:00 -15°C° 0 mm 1 mps 767 mmHg 95%
    21:00 -15°C° 0 mm 1 mps 767 mmHg 95%
    22:00 -15°C° 0 mm 1 mps 767 mmHg 95%
    23:00 -15°C° 0 mm 1 mps 767 mmHg 96%

    22 November, Friday

    Time Temperature Precipitation Wind Pressure Humidity
    00:00 -16°C° 0 mm 0 mps 767 mmHg 96%
    01:00 -15°C° 0 mm 1 mps 767 mmHg 95%
    02:00 -15°C° 0 mm 1 mps 767 mmHg 94%
    03:00 -15°C° 0 mm 1 mps 766 mmHg 93%
    04:00 -15°C° 0 mm 1 mps 766 mmHg 91%
    05:00 -15°C° 0 mm 1 mps 766 mmHg 90%
    06:00 -15°C° 0 mm 1 mps 765 mmHg 89%
    07:00 -14°C° 0 mm 1 mps 765 mmHg 86%
    08:00 -12°C° 0 mm 1 mps 766 mmHg 84%
    09:00 -11°C° 0 mm 1 mps 766 mmHg 81%
    10:00 -9°C° 0 mm 1 mps 765 mmHg 80%
    11:00 -7°C° 0 mm 1 mps 764 mmHg 79%
    12:00 -4°C° 0 mm 1 mps 764 mmHg 78%
    13:00 -3°C° 0 mm 1 mps 764 mmHg 81%
    14:00 -2°C° 0 mm 1 mps 763 mmHg 84%
    15:00 -1°C° 0 mm 1 mps 763 mmHg 87%
    16:00 -1°C° 0 mm 1 mps 763 mmHg 89%
    17:00 -1°C° 0 mm 1 mps 763 mmHg 91%
    18:00 -1°C° 0 mm 1 mps 762 mmHg 92%
    19:00 -2°C° 0 mm 1 mps 762 mmHg 93%
    20:00 -2°C° 0 mm 1 mps 762 mmHg 93%
    21:00 -2°C° 0 mm 1 mps 762 mmHg 93%
    22:00 -2°C° 0 mm 1 mps 761 mmHg 93%
    23:00 -2°C° 0 mm 1 mps 761 mmHg 93%

    23 November, Saturday

    Time Temperature Precipitation Wind Pressure Humidity
    00:00 -2°C° 0 mm 1 mps 760 mmHg 93%
    01:00 -1°C° 0 mm 1 mps 759 mmHg 92%
    02:00 0°C° 0 mm 1 mps 759 mmHg 91%
    03:00 -1°C° 0 mm 2 mps 758 mmHg 90%
    04:00 +1°C° 0 mm 2 mps 757 mmHg 92%
    05:00 +1°C° 0 mm 2 mps 757 mmHg 94%
    06:00 +1°C° 0 mm 3 mps 756 mmHg 95%
    07:00 +1°C° 0.1 mm 3 mps 755 mmHg 96%
    08:00 +2°C° 0.1 mm 3 mps 755 mmHg 98%
    09:00 +2°C° 0.1 mm 3 mps 754 mmHg 99%
    10:00 +3°C° 1.7 mm 4 mps 753 mmHg 99%
    11:00 +3°C° 1.7 mm 4 mps 753 mmHg 99%
    12:00 +2°C° 1.7 mm 5 mps 752 mmHg 99%
    13:00 +2°C° 0.8 mm 5 mps 752 mmHg 99%
    14:00 +2°C° 0.8 mm 5 mps 753 mmHg 98%
    15:00 +2°C° 0.8 mm 5 mps 753 mmHg 98%
    16:00 +1°C° 0.1 mm 5 mps 754 mmHg 92%
    17:00 0°C° 0.1 mm 5 mps 755 mmHg 86%
    18:00 -1°C° 0.1 mm 5 mps 756 mmHg 80%
    19:00 -3°C° 0 mm 4 mps 757 mmHg 82%
    20:00 -6°C° 0 mm 3 mps 758 mmHg 85%
    21:00 -7°C° 0 mm 2 mps 759 mmHg 87%
    22:00 -7°C° 0 mm 2 mps 760 mmHg 87%
    23:00 -8°C° 0 mm 2 mps 760 mmHg 86%
    Show more